Total_Precipitation_Accumulation
0.02 0.05 0.10 0.13 0.11 0.09 0.06 0.05 0.04 0.04 0.05 0.05 0.05 0.06 0.08 0.11 0.13 0.14 0.14 0.14 0.12 0.10 0.09 0.09 0.08 0.07 0.05 0.05 0.05 0.08 0.07 0.06 0.06 0.06 0.07 0.06 0.06 0.04 0.03 0.06 0.10 0.09 0.03
0.04 0.06 0.08 0.09 0.08 0.06 0.05 0.04 0.03 0.02 0.03 0.03 0.03 0.03 0.04 0.07 0.10 0.12 0.13 0.14 0.14 0.13 0.11 0.11 0.10 0.09 0.08 0.09 0.11 0.10 0.08 0.07 0.06 0.08 0.08 0.06 0.04 0.04 0.04 0.06 0.09 0.11 0.04
0.03 0.04 0.05 0.07 0.06 0.05 0.05 0.03 0.02 0.02 0.02 0.02 0.02 0.02 0.02 0.04 0.06 0.09 0.11 0.11 0.12 0.13 0.14 0.13 0.14 0.15 0.12 0.13 0.16 0.13 0.12 0.10 0.06 0.06 0.06 0.09 0.11 0.05 0.05 0.06 0.05 0.09 0.07
0.01 0.03 0.03 0.05 0.06 0.05 0.05 0.04 0.03 0.03 0.02 0.02 0.02 0.02 0.02 0.03 0.04 0.04 0.07 0.09 0.13 0.16 0.20 0.18 0.18 0.20 0.17 0.15 0.16 0.15 0.16 0.14 0.09 0.06 0.02 0.07 0.19 0.14 0.12 0.11 0.06 0.09 0.10
0.01 0.01 0.02 0.04 0.05 0.05 0.05 0.04 0.04 0.04 0.04 0.04 0.03 0.03 0.03 0.04 0.04 0.03 0.03 0.05 0.12 0.18 0.21 0.23 0.22 0.22 0.22 0.20 0.18 0.19 0.21 0.19 0.12 0.05 0.01 0.02 0.15 0.22 0.17 0.16 0.11 0.10 0.11
0.00 0.01 0.02 0.05 0.06 0.06 0.06 0.05 0.04 0.04 0.04 0.04 0.04 0.05 0.06 0.06 0.05 0.04 0.03 0.03 0.06 0.12 0.18 0.22 0.25 0.29 0.29 0.23 0.21 0.25 0.29 0.28 0.12 0.02 0.01 0.02 0.12 0.24 0.21 0.18 0.15 0.11 0.10
0.00 0.02 0.04 0.06 0.05 0.05 0.05 0.05 0.05 0.05 0.05 0.04 0.05 0.06 0.07 0.07 0.07 0.06 0.06 0.05 0.04 0.05 0.10 0.16 0.21 0.27 0.30 0.27 0.26 0.30 0.39 0.30 0.10 0.07 0.04 0.03 0.11 0.36 0.46 0.33 0.21 0.13 0.10
0.00 0.02 0.04 0.04 0.03 0.04 0.05 0.06 0.06 0.07 0.07 0.06 0.07 0.07 0.06 0.06 0.07 0.09 0.09 0.08 0.07 0.07 0.08 0.11 0.15 0.22 0.28 0.30 0.30 0.35 0.39 0.24 0.09 0.10 0.10 0.08 0.19 0.53 0.62 0.61 0.44 0.23 0.14
0.00 0.00 0.01 0.01 0.01 0.02 0.04 0.06 0.06 0.06 0.06 0.06 0.06 0.05 0.04 0.05 0.08 0.11 0.10 0.08 0.08 0.09 0.08 0.08 0.07 0.10 0.17 0.27 0.31 0.30 0.28 0.19 0.10 0.16 0.14 0.19 0.22 0.58 0.69 0.77 0.64 0.41 0.23
0.00 0.00 0.00 0.00 0.00 0.00 0.02 0.05 0.05 0.05 0.04 0.04 0.04 0.04 0.05 0.05 0.06 0.08 0.08 0.07 0.07 0.08 0.08 0.07 0.07 0.06 0.08 0.11 0.15 0.16 0.13 0.10 0.09 0.16 0.28 0.25 0.25 0.63 0.77 0.80 0.68 0.55 0.41
0.00 0.00 0.00 0.00 0.00 0.00 0.01 0.04 0.05 0.05 0.04 0.03 0.03 0.03 0.04 0.03 0.02 0.03 0.03 0.05 0.06 0.06 0.06 0.07 0.08 0.07 0.06 0.04 0.04 0.05 0.04 0.02 0.06 0.17 0.23 0.24 0.38 0.74 0.83 0.81 0.74 0.64 0.57
0.00 0.00 0.00 0.00 0.00 0.00 0.01 0.03 0.04 0.05 0.04 0.04 0.05 0.06 0.06 0.05 0.04 0.04 0.04 0.06 0.07 0.07 0.07 0.09 0.10 0.08 0.06 0.04 0.07 0.09 0.03 0.01 0.02 0.05 0.07 0.12 0.40 0.78 0.89 0.84 0.83 0.79 0.72
0.00 0.00 0.00 0.00 0.00 0.00 0.00 0.02 0.02 0.02 0.04 0.07 0.08 0.10 0.10 0.08 0.10 0.11 0.11 0.11 0.09 0.08 0.11 0.13 0.14 0.15 0.17 0.17 0.18 0.16 0.09 0.06 0.04 0.02 0.02 0.07 0.20 0.41 0.67 0.80 0.87 0.88 0.86
0.00 0.00 0.00 0.00 0.00 0.00 0.00 0.01 0.01 0.02 0.03 0.04 0.06 0.07 0.07 0.07 0.10 0.13 0.13 0.12 0.09 0.10 0.12 0.15 0.15 0.15 0.15 0.14 0.16 0.14 0.12 0.11 0.08 0.07 0.04 0.05 0.09 0.13 0.30 0.51 0.67 0.78 0.86
0.00 0.00 0.00 0.00 0.00 0.00 0.00 0.00 0.00 0.01 0.01 0.02 0.03 0.03 0.03 0.05 0.04 0.04 0.03 0.03 0.04 0.06 0.06 0.05 0.05 0.06 0.08 0.09 0.10 0.11 0.13 0.13 0.14 0.12 0.10 0.09 0.08 0.08 0.13 0.25 0.44 0.62 0.76
0.00 0.00 0.00 0.00 0.00 0.00 0.00 0.00 0.00 0.00 0.00 0.00 0.00 0.00 0.01 0.02 0.01 0.01 0.01 0.02 0.02 0.02 0.02 0.01 0.01 0.01 0.01 0.03 0.04 0.06 0.09 0.10 0.11 0.13 0.13 0.14 0.12 0.10 0.11 0.16 0.27 0.50 0.69
0.00 0.00 0.00 0.00 0.00 0.00 0.00 0.00 0.00 0.00 0.00 0.00 0.00 0.00 0.00 0.00 0.00 0.00 0.01 0.01 0.01 0.01 0.01 0.00 0.00 0.00 0.00 0.00 0.01 0.01 0.02 0.05 0.07 0.08 0.11 0.15 0.17 0.15 0.14 0.15 0.17 0.31 0.55
0.00 0.00 0.00 0.00 0.00 0.00 0.00 0.00 0.00 0.00 0.00 0.00 0.00 0.00 0.00 0.00 0.00 0.00 0.00 0.00 0.00 0.00 0.00 0.00 0.00 0.00 0.00 0.00 0.00 0.00 0.00 0.01 0.02 0.03 0.05 0.10 0.18 0.21 0.19 0.18 0.18 0.19 0.36
0.00 0.00 0.00 0.00 0.00 0.00 0.00 0.00 0.00 0.00 0.00 0.00 0.00 0.00 0.00 0.00 0.00 0.00 0.00 0.00 0.00 0.00 0.00 0.00 0.00 0.00 0.00 0.00 0.00 0.00 0.00 0.00 0.01 0.02 0.03 0.05 0.09 0.17 0.23 0.23 0.22 0.18 0.23
0.00 0.00 0.00 0.00 0.00 0.00 0.00 0.00 0.00 0.00 0.00 0.00 0.00 0.00 0.00 0.00 0.00 0.00 0.00 0.00 0.00 0.00 0.00 0.00 0.00 0.00 0.00 0.00 0.00 0.00 0.00 0.00 0.00 0.01 0.02 0.04 0.05 0.09 0.17 0.24 0.26 0.20 0.16
0.00 0.00 0.00 0.00 0.00 0.00 0.00 0.00 0.00 0.00 0.00 0.00 0.00 0.00 0.00 0.00 0.00 0.00 0.00 0.00 0.00 0.00 0.00 0.00 0.00 0.01 0.01 0.01 0.02 0.00 0.00 0.00 0.00 0.00 0.00 0.01 0.03 0.05 0.09 0.18 0.26 0.24 0.19
0.00 0.00 0.00 0.00 0.00 0.00 0.00 0.00 0.00 0.00 0.00 0.00 0.00 0.00 0.00 0.00 0.00 0.00 0.00 0.00 0.00 0.00 0.00 0.01 0.01 0.02 0.02 0.02 0.05 0.07 0.02 0.00 0.00 0.00 0.00 0.00 0.01 0.02 0.05 0.10 0.19 0.24 0.24
0.00 0.00 0.00 0.00 0.00 0.00 0.00 0.00 0.00 0.00 0.00 0.00 0.00 0.00 0.00 0.00 0.00 0.00 0.00 0.00 0.00 0.00 0.01 0.01 0.02 0.04 0.06 0.04 0.06 0.17 0.17 0.07 0.02 0.00 0.00 0.00 0.00 0.01 0.02 0.06 0.12 0.20 0.26
0.00 0.00 0.00 0.00 0.00 0.00 0.00 0.00 0.00 0.00 0.00 0.00 0.00 0.00 0.00 0.00 0.00 0.00 0.00 0.00 0.00 0.00 0.01 0.03 0.03 0.05 0.09 0.09 0.07 0.10 0.15 0.16 0.14 0.05 0.01 0.01 0.01 0.01 0.01 0.02 0.06 0.12 0.20
0.00 0.00 0.00 0.00 0.00 0.00 0.00 0.00 0.00 0.00 0.00 0.00 0.00 0.00 0.00 0.00 0.00 0.00 0.00 0.00 0.00 0.00 0.02 0.03 0.05 0.07 0.11 0.14 0.13 0.12 0.11 0.09 0.10 0.13 0.05 0.01 0.02 0.03 0.03 0.03 0.04 0.08 0.14
0.00 0.00 0.00 0.00 0.00 0.00 0.00 0.00 0.00 0.00 0.00 0.00 0.00 0.00 0.00 0.00 0.00 0.00 0.00 0.00 0.00 0.00 0.01 0.03 0.06 0.08 0.11 0.13 0.15 0.16 0.17 0.17 0.12 0.14 0.10 0.04 0.02 0.02 0.03 0.03 0.04 0.07 0.12